Preview of NWS' New Version of Forecast
This preview is not operational and should not be used for support decisions.

Regional Weather Roundup (RWR)

Issued by National Weather Service (NWS)

                            
000
ASUS46 KPQR 240810
RWROR 

OREGON REGIONAL WEATHER ROUNDUP
NATIONAL WEATHER SERVICE PORTLAND OR
100 AM PDT SAT AUG 24 2019

NOTE: "FAIR" INDICATES FEW OR NO CLOUDS BELOW 12,000 FEET WITH
NO SIGNIFICANT WEATHER AND/OR OBSTRUCTIONS TO VISIBILITY.

ORZ001>013-240900-
NORTHWEST OREGON

  
CITY           SKY/WX    TMP DP  RH WIND       PRES   REMARKS
ASTORIA        CLOUDY    60  54  80 VRB3      29.95S                  
TILLAMOOK      PTCLDY    50  48  93 CALM      29.98S                  
NEWPORT        PTCLDY    50  48  93 CALM        N/A                   
FLORENCE       FAIR      50  48  93 CALM      29.95S                  
PORTLAND       PTCLDY    65  52  62 NW6       29.92R                  
VANCOUVER WA   PTCLDY    65  52  62 CALM      29.91S                  
SCAPPOOSE      MOCLDY    63  49  60 NW6       29.91S                  
HILLSBORO      PTCLDY    61  48  62 W6        29.91F                  
AURORA         CLEAR     63  49  60 N6        29.93S                  
MCMINNVILLE    CLEAR     57  50  77 W5        29.92S                  
SALEM          PTCLDY    62  50  64 NW5       29.92R                  
CORVALLIS      PTCLDY    60  50  69 NW9       29.94R                  
EUGENE         PTCLDY    62  53  72 NW5       29.94R                  
CRESWELL       PTCLDY    55  55 100 CALM      29.93R                  
$$

ORZ021-028-240900-
SOUTHWEST OREGON

  
CITY           SKY/WX    TMP DP  RH WIND       PRES   REMARKS
NORTH BEND     CLEAR     57  54  89 N3        29.99R                  
BROOKINGS      CLEAR     55  53  93 CALM      29.91R                  
ROSEBURG       PTCLDY    65  53  65 CALM      29.92R                  
SEXTON SUMMIT  CLEAR     61  42  49 N10       30.01S                  
GRANTS PASS    FAIR      63  50  63 CALM      29.93R                  
MEDFORD        CLEAR     68  53  58 CALM      29.90R                  
$$

ORZ014>016-041-240900-
COLUMBIA GORGE

  
CITY           SKY/WX    TMP DP  RH WIND       PRES   REMARKS
TROUTDALE      PTCLDY    64  53  67 CALM      29.92R                  
HOOD RIVER     MOCLDY    68  54  60 NW6       29.88S                  
THE DALLES     MOCLDY    74  52  46 W16G25    29.83R                  
$$

ORZ029>031-041-044-049-050-061>064-502-503-505>511-240900-
EASTERN OREGON

  
CITY           SKY/WX    TMP DP  RH WIND       PRES   REMARKS
MADRAS         PTCLDY    59  46  63 CALM      29.94R                  
REDMOND        PTCLDY    58  46  64 CALM      29.94R                  
BEND           PTCLDY    64  46  52 SW6       29.95S                  
PRINEVILLE     MOCLDY    55  46  71 CALM      29.94S                  
KLAMATH FALLS  CLEAR     55  49  80 CALM      30.02R                  
LAKEVIEW       CLEAR     52  41  66 NW5       30.05R                  
HERMISTON      CLOUDY    75  45  34 SW9       29.79R                  
PENDLETON      MOCLDY    66  46  48 CALM      29.83R                  
JOHN DAY       PTCLDY    64  34  33 E8        29.96S                  
MEACHAM        MOCLDY    52  43  71 CALM      29.96S                  
LA GRANDE      PTCLDY    59  46  62 SE3       29.92R                  
BAKER CITY     MOCLDY    58  47  66 CALM      29.93S                  
BURNS          MOCLDY    51  35  54 W5        29.99R                  
ROME             N/A     58  23  26 S6        29.97S                  
ONTARIO        PTCLDY    65  50  58 CALM      29.88R                  
$$